Theta_e
347 347 348 348 348 347 346 345 345 344 343 343 343 342 342 342 342 341 341 341 341 340 340 339 339 339 338 338 339 339 338 337 336 334 334 334 334 333 332 330 331 330
346 347 347 348 348 348 347 346 345 344 344 344 343 343 343 342 342 341 340 340 340 340 339 339 339 338 338 337 337 337 337 336 335 332 332 333 332 332 332 330 328 329
346 347 347 347 348 347 347 346 345 344 344 345 344 343 342 342 341 340 339 339 339 339 339 338 338 337 337 336 336 335 335 334 331 328 329 330 330 331 331 330 329 328
346 346 346 347 347 346 346 347 346 344 344 345 344 343 342 341 340 339 339 339 338 338 338 337 337 336 335 335 334 333 332 331 329 326 326 326 327 328 328 329 328 326
346 346 346 346 346 346 346 347 346 344 344 345 343 342 341 340 339 338 338 338 338 337 337 336 335 335 334 333 332 331 330 329 327 326 325 324 324 324 325 325 325 324
345 345 346 346 345 345 345 346 345 344 344 344 342 341 340 339 339 337 337 337 337 336 335 334 334 333 332 331 330 330 329 328 327 326 326 325 324 323 323 323 323 322
345 346 345 345 345 345 345 345 344 343 342 342 341 340 339 338 338 337 337 336 336 336 334 333 332 331 331 330 329 329 328 327 326 325 325 325 324 323 322 322 322 321
346 345 345 345 345 345 344 345 344 342 342 341 340 339 338 338 338 337 337 336 335 334 333 332 331 330 329 328 328 328 327 326 325 325 324 324 323 322 321 320 320 319
346 345 345 344 344 344 344 344 343 341 341 341 339 338 338 337 337 337 336 336 335 334 332 330 330 329 329 328 328 328 327 326 324 324 324 323 322 321 320 320 320 320
345 345 344 344 344 343 343 343 342 341 341 340 338 337 337 337 337 337 336 335 334 333 331 330 329 329 328 328 328 327 326 325 324 323 322 321 321 320 319 319 319 319
345 344 344 343 343 343 343 342 341 340 339 338 337 337 337 337 336 336 335 334 334 332 331 330 329 329 328 328 327 326 325 324 323 321 320 320 320 319 318 317 318 318
344 344 343 343 343 343 342 341 339 338 337 337 336 336 336 336 336 335 334 334 333 332 330 329 329 328 328 327 326 325 324 323 322 320 319 318 317 316 316 316 316 316
343 343 343 343 343 342 342 340 339 337 337 336 335 335 336 336 335 335 334 333 332 331 330 329 328 328 327 326 325 324 323 322 321 319 316 314 313 314 314 315 314 314
343 343 343 343 342 341 341 339 338 337 336 335 335 335 336 336 335 334 333 333 331 330 329 329 328 327 326 326 324 323 322 322 320 318 315 313 312 313 314 314 314 314
343 343 343 342 341 341 340 339 338 337 336 335 334 336 336 336 335 334 332 332 330 329 329 328 327 327 325 325 324 323 322 321 319 318 316 315 314 314 315 315 315 315
342 343 342 341 341 340 339 338 337 336 335 334 335 335 335 335 334 333 332 331 330 329 328 328 327 326 324 323 322 322 321 320 319 318 317 316 315 315 316 315 315 315
342 342 342 341 340 340 339 338 336 335 335 334 334 335 335 334 333 332 331 331 329 329 328 328 327 325 322 321 319 319 320 320 319 318 317 316 316 316 316 315 314 315
342 342 341 341 340 339 338 336 335 334 334 334 334 334 334 334 333 332 331 330 329 329 328 327 326 323 321 319 318 317 318 318 318 317 316 315 315 315 315 314 314 315
342 342 341 340 339 338 337 336 335 334 333 333 334 334 334 333 332 331 331 330 329 328 328 327 325 322 319 318 317 315 315 317 317 316 315 315 315 315 314 314 314 315
341 341 340 340 338 337 336 335 334 333 333 334 334 333 333 333 332 331 330 330 329 328 328 327 324 321 318 317 316 314 314 316 317 315 314 315 315 315 315 314 314 314
341 340 340 339 337 336 335 335 334 333 333 333 333 332 333 332 332 331 330 329 329 328 327 327 323 320 318 316 315 314 313 315 316 315 315 315 315 315 315 315 315 314
340 339 339 338 336 336 335 334 334 333 332 332 332 332 333 332 331 331 330 329 329 328 327 326 323 320 318 316 315 313 312 314 316 315 315 315 315 315 314 314 315 314
339 339 338 337 336 335 335 334 334 333 332 331 331 332 332 331 331 330 330 329 328 327 327 326 322 319 317 316 315 313 312 314 316 315 315 315 315 314 314 314 314 314
339 338 337 336 335 335 334 334 333 332 331 331 332 332 331 331 330 330 330 330 328 327 327 325 322 320 317 316 315 313 313 315 316 315 314 315 314 314 313 313 313 312
338 337 336 335 335 334 334 333 333 332 331 331 332 332 331 331 330 330 330 330 329 327 326 324 323 321 317 316 315 313 313 315 316 315 315 314 314 313 312 312 311 309
338 336 335 334 335 334 333 333 332 331 331 332 332 332 331 331 330 330 330 329 328 327 325 324 323 321 318 317 315 313 313 315 316 315 315 314 314 313 312 312 312 310
Wind_Speed
22 24 25 23 20 19 20 19 18 19 19 18 18 17 16 15 13 12 13 13 13 12 12 12 12 12 12 10 9 10 9 8 16 23 22 22 22 21 23 23 22 22
23 25 25 23 21 19 20 19 18 19 19 18 17 16 15 14 12 12 13 13 12 12 11 10 10 10 11 11 9 8 8 5 7 17 24 27 25 21 21 24 23 21
25 26 25 24 22 21 20 19 18 19 18 17 17 16 14 12 11 11 12 12 12 11 10 9 9 9 8 8 7 6 6 5 5 10 18 25 27 23 21 22 21 19
27 27 25 24 23 22 20 19 19 19 17 16 17 15 13 11 10 11 12 12 11 10 9 8 8 8 7 6 5 5 4 5 5 8 11 17 21 22 22 22 22 21
28 27 25 24 23 23 21 19 19 19 17 17 17 15 12 10 10 11 11 10 10 9 8 8 6 5 5 5 4 4 5 6 7 7 9 12 14 14 16 18 21 22
27 27 25 24 24 24 23 21 20 20 19 18 18 15 13 12 11 11 11 9 9 8 7 7 6 4 4 4 4 4 4 5 6 7 8 9 11 11 11 11 15 19
26 27 26 24 24 25 24 22 21 21 20 20 18 15 14 14 12 11 11 9 9 8 7 7 6 5 4 4 5 5 6 5 6 6 7 8 9 10 10 11 12 15
25 26 26 24 24 25 25 22 21 22 20 19 17 16 16 15 13 12 11 9 8 8 7 7 6 5 5 6 7 7 6 6 6 6 6 7 8 8 9 11 12 13
23 25 26 26 26 27 26 22 21 22 19 17 17 16 17 16 14 13 12 10 9 8 8 8 7 7 7 7 7 6 6 6 6 6 6 7 7 8 9 10 11 11
24 26 27 27 28 29 26 23 23 21 19 18 17 16 17 17 14 13 12 10 10 10 9 9 8 8 8 8 7 6 5 6 6 6 7 7 7 7 8 8 8 8
26 27 27 29 30 28 26 26 24 21 19 18 18 17 17 17 15 14 12 11 11 11 10 9 9 9 9 8 7 6 6 6 6 6 7 6 5 6 7 7 7 6
27 27 28 30 29 28 28 26 22 22 23 19 17 18 18 16 16 14 12 12 12 12 11 10 10 10 9 8 7 7 6 6 6 7 7 7 5 5 5 5 5 5
28 29 29 30 30 30 30 24 20 24 26 19 17 19 18 17 16 14 13 14 14 13 12 11 11 10 10 8 7 7 7 7 7 7 8 8 7 5 4 4 4 4
29 29 29 31 31 31 27 22 20 23 23 19 18 19 18 17 16 15 15 15 14 13 12 12 11 10 9 8 8 7 7 7 7 7 7 7 7 5 4 4 4 4
29 28 29 32 32 29 25 22 21 22 20 18 19 19 19 17 16 17 17 16 15 14 13 12 11 10 9 9 9 8 8 7 7 7 7 7 6 5 5 5 5 5
29 29 31 34 31 27 25 23 23 23 21 20 20 20 19 17 17 18 18 17 16 15 14 13 11 10 11 12 11 9 9 8 8 8 7 7 7 6 6 6 6 5
30 31 33 34 29 26 25 24 23 23 21 22 22 21 20 18 18 19 18 17 17 16 14 13 12 12 12 12 12 11 10 9 8 8 8 8 8 8 8 7 6 5
32 33 34 32 28 26 26 24 23 22 21 23 23 22 20 18 19 20 19 18 17 16 15 13 12 14 13 12 12 12 12 10 8 8 9 9 9 8 8 7 6 6
33 33 33 30 28 27 25 24 23 21 22 24 23 22 21 20 20 21 19 18 17 17 15 14 14 15 15 14 13 13 13 11 8 9 9 9 9 8 8 8 7 7
33 31 30 29 29 28 25 24 24 22 23 25 23 23 23 22 21 22 20 19 18 18 16 14 16 17 16 15 14 13 14 12 8 9 10 9 9 9 8 9 8 8
31 30 30 29 29 27 25 25 24 23 25 25 22 23 23 22 23 23 22 20 18 18 16 15 17 18 17 17 15 14 15 12 8 9 10 9 9 9 8 9 8 8
30 30 30 30 28 27 25 25 24 24 24 22 20 22 24 23 24 24 22 20 19 17 16 15 18 19 18 18 17 16 16 13 9 10 10 9 9 9 8 8 8 8
29 30 30 29 28 27 27 26 25 24 22 20 21 25 26 25 24 23 22 21 20 18 16 17 20 20 19 19 18 18 17 13 10 10 10 9 9 8 8 8 8 9
29 29 30 29 28 28 28 26 25 23 20 21 25 27 26 24 24 23 22 22 21 18 17 19 22 22 21 20 19 19 18 13 11 11 11 10 9 9 8 8 9 11
28 29 29 28 28 28 27 26 26 22 20 23 26 25 24 24 23 22 24 24 21 19 20 21 23 24 23 21 20 20 18 13 11 12 11 11 10 10 9 8 8 12
30 29 28 28 28 26 25 26 26 22 21 24 25 23 24 26 24 22 23 23 20 19 21 22 23 25 25 22 21 21 19 14 11 11 12 11 11 10 9 9 8 9
Wind_Direction
196 201 201 192 186 185 183 186 197 201 198 199 203 205 203 202 203 204 207 210 213 219 223 225 232 239 244 246 240 237 253 242 205 203 212 216 217 218 214 215 221 219
199 202 203 196 187 185 184 186 196 201 199 201 204 205 202 196 195 202 207 209 211 214 219 224 230 241 250 250 252 246 241 245 203 196 203 209 214 219 219 221 225 222
202 202 201 199 190 183 184 187 196 203 201 200 203 205 198 189 191 200 203 206 207 208 212 218 225 236 249 247 248 252 238 228 190 180 192 202 211 216 216 220 223 216
202 201 199 200 194 186 185 186 194 202 200 197 201 198 186 181 187 195 200 200 201 205 207 214 221 226 235 238 239 236 232 230 203 173 174 188 201 207 208 213 218 216
201 200 198 199 195 189 186 187 190 195 196 197 197 189 180 182 185 190 197 197 200 205 204 206 210 211 217 224 232 228 223 231 215 177 161 166 174 185 191 201 210 213
199 198 196 195 194 191 189 189 188 190 196 196 191 184 181 182 183 189 196 195 197 201 199 202 200 192 200 208 213 209 197 203 194 169 160 160 159 165 171 181 195 203
195 195 193 191 190 191 190 188 184 188 194 192 185 181 180 180 183 190 192 187 187 192 196 199 193 182 184 187 184 175 168 171 170 163 160 158 157 159 163 167 176 187
193 192 191 187 186 189 189 185 181 185 188 186 182 178 177 180 185 188 186 183 185 188 188 182 175 170 169 172 174 169 168 172 166 160 158 156 155 157 161 166 169 174
190 188 187 185 185 188 187 181 178 180 181 182 181 175 175 179 183 186 187 187 186 181 175 169 162 163 168 173 177 175 173 169 163 163 158 152 157 162 164 166 168 169
188 186 184 182 186 188 183 176 175 177 179 180 178 172 173 177 181 185 186 185 183 179 172 166 163 167 173 176 179 181 174 164 164 163 153 153 165 167 164 167 170 168
186 185 182 182 186 185 178 174 174 177 179 175 173 171 170 172 176 180 182 181 181 178 172 165 165 172 176 178 179 178 169 163 163 156 148 156 172 171 166 166 166 161
183 184 181 181 184 181 175 172 173 179 180 173 169 170 168 169 174 178 181 181 176 170 164 161 167 174 177 179 176 167 164 164 158 152 158 169 175 172 170 165 159 153
183 183 182 181 181 179 174 170 172 179 180 175 169 168 169 174 179 180 179 176 172 165 158 159 167 174 177 177 169 163 163 164 156 153 169 185 185 178 172 159 149 146
182 181 181 180 179 176 171 168 172 176 176 172 169 169 171 174 176 177 175 171 169 163 157 161 169 173 175 171 166 165 164 165 164 160 168 183 184 175 168 158 149 145
180 178 177 177 175 171 168 168 172 172 170 168 167 170 173 171 167 169 171 170 168 162 159 166 170 174 176 170 164 166 165 165 168 165 166 174 173 170 172 167 157 151
178 176 174 175 171 167 166 168 170 170 167 164 166 171 173 168 162 164 169 169 165 161 164 168 173 182 185 177 169 167 165 166 168 169 171 170 167 173 178 172 162 157
176 173 173 172 168 164 165 166 168 168 165 161 165 171 170 165 162 165 171 169 163 163 168 171 178 186 185 182 179 172 165 167 170 171 172 172 174 180 179 172 163 158
174 174 173 169 164 163 165 165 166 165 161 162 167 169 168 166 164 167 172 169 164 167 171 174 181 182 177 178 179 174 166 165 171 174 172 175 181 184 179 174 169 166
173 173 170 165 164 164 163 164 165 162 160 164 166 167 169 170 166 168 172 169 166 170 172 175 179 177 174 175 175 173 167 162 169 177 175 178 182 182 181 179 178 178
171 170 166 164 164 163 162 164 163 160 162 166 165 166 170 170 167 170 173 169 168 171 171 175 177 174 173 174 172 170 166 161 168 177 177 181 184 183 186 185 185 188
168 167 164 164 164 162 162 162 160 160 164 165 164 166 170 171 171 173 174 171 170 172 171 175 178 175 173 173 173 169 164 160 167 175 176 182 184 186 190 190 191 194
165 166 166 165 164 162 161 160 160 162 163 161 161 168 171 172 174 176 177 174 173 172 170 175 179 177 175 175 174 169 164 163 171 176 177 182 184 187 192 193 196 199
164 165 166 165 163 163 163 161 160 162 161 159 164 170 172 172 175 178 180 179 176 173 170 175 180 180 178 177 175 170 167 168 175 177 179 182 183 188 191 193 198 199
166 167 166 165 162 164 165 161 159 161 161 163 169 171 171 173 177 179 179 180 179 176 174 178 181 181 180 179 177 173 169 171 177 177 179 183 183 187 191 195 204 206
169 168 165 163 161 164 165 161 160 161 163 168 173 173 171 175 178 178 178 179 179 178 180 183 184 183 183 181 179 176 172 174 181 180 180 184 185 187 192 196 207 214
170 168 165 163 161 162 163 161 160 162 168 173 175 173 174 177 178 176 175 176 175 177 184 188 187 186 184 181 181 180 175 174 182 184 183 185 187 187 190 194 199 209